GW1515 Weather Reports


Display with metric or nautical units.
time (UTC)temp
F
wind
direction
speed
MPH
gust
MPH
rain 1hr
in
rain 24hr
in
rain mn
in
humidity
%
barometer
mb
20260502233124 55 245 5.0 5.0 0.00 0.00 0.00 40 1016.6
20260502232620 55 184 3.0 8.0 0.00 0.00 0.00 41 1016.7
20260502232118 55 207 1.0 3.0 0.00 0.00 0.00 41 1016.9
20260502231614 55 187 1.0 6.0 0.00 0.00 0.00 41 1016.6
20260502231112 54 215 3.0 4.0 0.00 0.00 0.00 43 1016.8
20260502230610 54 255 5.0 7.0 0.00 0.00 0.00 42 1017.0
20260502230109 54 233 7.0 11.0 0.00 0.00 0.00 41 1017.1
20260502225604 54 253 1.0 7.0 0.00 0.00 0.00 42 1016.8
20260502225101 55 246 3.0 7.0 0.00 0.00 0.00 40 1017.0
20260502224557 57 234 5.0 8.0 0.00 0.00 0.00 39 1016.8
20260502224054 57 193 3.0 6.0 0.00 0.00 0.00 40 1017.0
20260502223552 56 242 3.0 8.0 0.00 0.00 0.00 39 1017.0
20260502223050 55 241 4.0 10.0 0.00 0.00 0.00 42 1017.0
20260502222547 55 222 3.0 9.0 0.00 0.00 0.00 41 1016.9
20260502222043 57 277 5.0 7.0 0.00 0.00 0.00 38 1017.1
20260502221539 56 242 8.0 14.0 0.00 0.00 0.00 38 1017.2
20260502221037 56 244 4.0 16.0 0.00 0.00 0.00 39 1017.1
20260502220532 58 36 0.0 7.0 0.00 0.00 0.00 40 1016.9
20260502220029 58 206 3.0 5.0 0.00 0.00 0.00 39 1016.8
20260502215526 57 280 2.0 5.0 0.00 0.00 0.00 41 1017.1
20260502215023 55 292 3.0 6.0 0.00 0.00 0.00 39 1017.1
20260502214520 55 6 1.0 7.0 0.00 0.00 0.00 42 1017.1
20260502214018 54 263 1.0 5.0 0.00 0.00 0.00 43 1017.0
20260502213514 54 233 3.0 4.0 0.00 0.00 0.00 45 1017.4
20260502213012 53 0 0.0 6.0 0.00 0.00 0.00 43 1017.2
20260502212511 54 18 3.0 10.0 0.00 0.00 0.00 43 1017.5
20260502212008 55 268 1.0 4.0 0.00 0.00 0.00 44 1017.2
20260502211503 54 277 2.0 3.0 0.00 0.00 0.00 43 1017.1
20260502211001 53 336 3.0 7.0 0.00 0.00 0.00 44 1017.5
20260502210457 53 250 3.0 6.0 0.00 0.00 0.00 45 1017.4
20260502205955 52 252 3.0 6.0 0.00 0.00 0.00 46 1017.6
20260502205451 53 344 5.0 7.0 0.00 0.00 0.00 44 1017.5
20260502204948 53 349 7.0 8.0 0.00 0.00 0.00 43 1017.6
20260502204445 52 347 4.0 10.0 0.00 0.00 0.00 44 1017.8
20260502203943 53 42 1.0 4.0 0.00 0.00 0.00 45 1017.5
20260502203440 52 14 5.0 7.0 0.00 0.00 0.00 42 1017.6
20260502202936 53 340 4.0 7.0 0.00 0.00 0.00 43 1017.8
20260502202433 53 300 6.0 8.0 0.00 0.00 0.00 42 1017.9
20260502201931 53 224 2.0 8.0 0.00 0.00 0.00 43 1017.9
20260502201427 53 304 5.0 11.0 0.00 0.00 0.00 40 1018.0
20260502200924 54 288 4.0 7.0 0.00 0.00 0.00 38 1017.9
20260502200419 54 282 2.0 7.0 0.00 0.00 0.00 40 1017.8
20260502195917 55 278 4.0 6.0 0.00 0.00 0.00 39 1018.0
20260502195414 54 296 3.0 12.0 0.00 0.00 0.00 38 1018.0
20260502194910 57 332 4.0 8.0 0.00 0.00 0.00 37 1018.0
20260502194408 56 244 6.0 9.0 0.00 0.00 0.00 38 1018.2
20260502193903 55 332 7.0 9.0 0.00 0.00 0.00 40 1018.3
20260502193401 53 271 5.0 12.0 0.00 0.00 0.00 39 1018.5
20260502192856 55 286 3.0 9.0 0.00 0.00 0.00 39 1018.5
20260502192353 54 137 1.0 11.0 0.00 0.00 0.00 44 1018.6
20260502191850 57 290 8.0 9.0 0.00 0.00 0.00 37 1018.4
20260502191348 54 309 2.0 11.0 0.00 0.00 0.00 40 1018.6
20260502190845 54 37 3.0 10.0 0.00 0.00 0.00 37 1018.6
20260502190343 55 286 4.0 15.0 0.00 0.00 0.00 38 1018.6
20260502185838 55 299 5.0 14.0 0.00 0.00 0.00 38 1018.6
20260502185334 55 343 4.0 8.0 0.00 0.00 0.00 39 1018.6
20260502184832 54 290 4.0 6.0 0.00 0.00 0.00 39 1018.9
20260502184326 55 279 3.0 7.0 0.00 0.00 0.00 36 1018.7
20260502183824 55 309 4.0 7.0 0.00 0.00 0.00 39 1018.8
20260502183320 56 253 4.0 8.0 0.00 0.00 0.00 38 1019.1
20260502182815 54 303 0.0 8.0 0.00 0.00 0.00 39 1019.1
20260502182310 54 268 4.0 12.0 0.00 0.00 0.00 41 1019.0
20260502181807 52 28 7.0 12.0 0.00 0.00 0.00 40 1019.0
20260502181306 53 324 3.0 15.0 0.00 0.00 0.00 38 1019.1
20260502180803 52 328 4.0 9.0 0.00 0.00 0.00 41 1019.2
20260502180300 52 328 4.0 10.0 0.00 0.00 0.00 42 1019.1
20260502170219 52 335 3.0 6.0 0.00 0.00 0.00 41 1019.6
20260502164207 51 297 8.0 11.0 0.00 0.00 0.00 40 1019.9
20260502163702 51 247 4.0 8.0 0.00 0.00 0.00 41 1019.6
20260502163159 53 337 6.0 12.0 0.00 0.00 0.00 39 1019.8
20260502162656 52 169 2.0 6.0 0.00 0.00 0.00 43 1019.8
20260502162153 51 296 2.0 11.0 0.00 0.00 0.00 43 1020.0
20260502161650 50 289 4.0 7.0 0.00 0.00 0.00 44 1020.1
20260502161147 50 337 7.0 12.0 0.00 0.00 0.00 42 1020.1
20260502160645 50 7 0.0 7.0 0.00 0.00 0.00 43 1020.1
20260502160144 50 357 3.0 7.0 0.00 0.00 0.00 42 1020.1
20260502152057 50 340 3.0 9.0 0.00 0.00 0.00 49 1020.3
20260502151554 49 30 11.0 11.0 0.00 0.00 0.00 45 1020.3
20260502151052 50 281 5.0 10.0 0.00 0.00 0.00 47 1020.3
20260502150549 50 297 4.0 7.0 0.00 0.00 0.00 45 1020.3
20260502130434 43 275 0.0 2.0 0.00 0.00 0.00 68 1020.0
20260502123417 40 296 2.0 3.0 0.00 0.00 0.00 72 1019.9
20260502122914 40 342 2.0 3.0 0.00 0.00 0.00 73 1019.9
20260502122410 40 290 0.0 2.0 0.00 0.00 0.00 75 1019.9
20260502121908 39 325 0.0 2.0 0.00 0.00 0.00 77 1020.0
20260502121405 38 19 0.0 2.0 0.00 0.00 0.00 80 1019.7
20260502120903 37 329 1.0 2.0 0.00 0.00 0.00 82 1019.8
20260502120358 36 25 0.0 2.0 0.00 0.00 0.00 85 1019.9
20260502115856 35 359 0.0 2.0 0.00 0.00 0.00 87 1019.6
20260502115353 35 261 1.0 3.0 0.00 0.00 0.00 90 1019.6
20260502114849 35 67 0.0 2.0 0.00 0.00 0.00 93 1019.6
20260502114346 34 76 1.0 2.0 0.00 0.00 0.00 95 1019.6
20260502113843 33 352 0.0 2.0 0.00 0.00 0.00 95 1019.6
20260502113340 33 330 0.0 2.0 0.00 0.00 0.00 96 1019.6
20260502112839 33 285 0.0 2.0 0.00 0.00 0.00 96 1019.5
20260502112336 34 30 0.0 2.0 0.00 0.00 0.00 97 1019.4
20260502111834 31 292 0.0 2.0 0.00 0.00 0.00 97 1019.5
20260502111331 30 100 0.0 2.0 0.00 0.00 0.00 97 1019.4
20260502110828 30 216 0.0 2.0 0.00 0.00 0.00 97 1019.3
20260502110326 30 135 0.0 2.0 0.00 0.00 0.00 97 1019.5
20260502105823 29 32 0.0 2.0 0.00 0.00 0.00 97 1019.1
20260502105320 29 331 0.0 2.0 0.00 0.00 0.00 97 1019.2
20260502104818 29 319 0.0 3.0 0.00 0.00 0.00 97 1019.2
20260502104315 29 323 0.0 2.0 0.00 0.00 0.00 97 1019.2
20260502103812 29 174 0.0 2.0 0.00 0.00 0.00 97 1019.3
20260502103309 29 104 0.0 2.0 0.00 0.00 0.00 97 1019.2
20260502102807 29 235 0.0 2.0 0.00 0.00 0.00 97 1019.2
20260502102306 29 89 0.0 2.0 0.00 0.00 0.00 97 1019.1
20260502101801 29 253 0.0 1.0 0.00 0.00 0.00 97 1019.1
20260502101259 29 135 0.0 2.0 0.00 0.00 0.00 97 1019.2
20260502100756 30 128 0.0 2.0 0.00 0.00 0.00 97 1019.4
20260502100255 30 100 0.0 2.0 0.00 0.00 0.00 97 1019.2
20260502091229 29 91 1.0 2.0 0.00 0.00 0.00 97 1018.9
20260502090727 29 64 1.0 2.0 0.00 0.00 0.00 96 1019.1
20260502090223 29 40 0.0 2.0 0.00 0.00 0.00 96 1019.1
20260502071119 32 256 0.0 2.0 0.00 0.00 0.00 94 1019.2
20260502070617 32 155 1.0 2.0 0.00 0.00 0.00 94 1019.2
20260502070115 31 49 0.0 2.0 0.00 0.00 0.00 93 1019.4
20260502065613 31 228 0.0 2.0 0.00 0.00 0.00 93 1019.5
20260502065110 31 48 1.0 2.0 0.00 0.00 0.00 93 1019.5
20260502064609 31 69 0.0 2.0 0.00 0.00 0.00 93 1019.4
20260502064105 32 89 0.0 1.0 0.00 0.00 0.00 92 1019.5
20260502063603 32 234 0.0 1.0 0.00 0.00 0.00 92 1019.5
20260502063101 32 111 1.0 2.0 0.00 0.00 0.00 91 1019.6
20260502062558 32 135 0.0 2.0 0.00 0.00 0.00 91 1019.6
20260502062055 32 63 0.0 2.0 0.00 0.00 0.00 91 1019.4
20260502061553 32 97 0.0 2.0 0.00 0.00 0.00 90 1019.4
20260502061050 32 99 0.0 2.0 0.00 0.00 0.00 90 1019.5
20260502060545 32 147 0.0 1.0 0.00 0.00 0.00 90 1019.7
20260502060042 32 69 0.0 2.0 0.00 0.00 0.00 90 1019.9
20260502055540 33 124 0.0 1.0 0.00 0.00 0.00 89 1019.7
20260502055038 33 104 1.0 2.0 0.00 0.00 0.00 89 1019.5
20260502054537 33 49 0.0 2.0 0.00 0.00 0.00 89 1019.7
20260502054033 33 153 0.0 1.0 0.00 0.00 0.00 89 1019.6
20260502053530 32 60 0.0 2.0 0.00 0.00 0.00 87 1019.9
20260502053028 33 93 1.0 2.0 0.00 0.00 0.00 87 1019.8
20260502052527 33 97 0.0 2.0 0.00 0.00 0.00 86 1019.6
20260502052024 34 106 1.0 2.0 0.00 0.00 0.00 86 1019.6
20260502051522 34 103 0.0 2.0 0.00 0.00 0.00 86 1019.6
20260502051020 34 84 0.0 2.0 0.00 0.00 0.00 85 1019.4
20260502050515 35 11 2.0 3.0 0.00 0.00 0.00 85 1019.8
20260502050013 34 45 2.0 3.0 0.00 0.00 0.00 87 1019.7
20260502045509 33 61 0.0 2.0 0.00 0.00 0.00 87 1019.7
20260502045006 33 139 0.0 1.0 0.00 0.00 0.00 86 1019.7
20260502044503 33 67 0.0 1.0 0.00 0.00 0.00 86 1019.8
20260502043959 34 64 1.0 2.0 0.00 0.00 0.00 84 1019.5
20260502043457 35 89 0.0 3.0 0.00 0.00 0.00 83 1019.8
20260502042956 35 49 0.0 3.0 0.00 0.00 0.00 83 1019.6
20260502042454 35 117 0.0 3.0 0.00 0.00 0.00 82 1019.8
20260502041951 35 103 2.0 3.0 0.00 0.00 0.00 82 1019.6
20260502041449 36 128 1.0 3.0 0.00 0.00 0.00 81 1019.7
20260502040945 36 84 2.0 3.0 0.00 0.00 0.00 80 1019.7
20260502040442 36 73 2.0 3.0 0.00 0.00 0.00 80 1019.6
20260502035938 36 80 1.0 2.0 0.00 0.00 0.00 80 1019.8
20260502035434 36 102 2.0 3.0 0.00 0.00 0.00 79 1019.4
20260502034933 37 91 2.0 3.0 0.00 0.00 0.00 78 1019.6
20260502034431 37 99 0.0 5.0 0.00 0.00 0.00 78 1019.7
20260502033929 37 77 3.0 4.0 0.00 0.00 0.00 78 1019.4
20260502033426 37 103 1.0 3.0 0.00 0.00 0.00 78 1019.4
20260502032922 37 109 2.0 3.0 0.00 0.00 0.00 78 1019.5
20260502032419 37 62 2.0 3.0 0.00 0.00 0.00 77 1019.4
20260502031916 37 144 1.0 3.0 0.00 0.00 0.00 77 1019.8
20260502031415 37 76 3.0 4.0 0.00 0.00 0.00 76 1019.7
20260502030913 37 69 2.0 5.0 0.00 0.00 0.00 76 1019.2
20260502030411 38 52 2.0 5.0 0.00 0.00 0.00 75 1019.3
20260502025908 38 70 3.0 5.0 0.00 0.00 0.00 75 1019.5
20260502025405 38 75 3.0 4.0 0.00 0.00 0.00 74 1019.4
20260502024903 38 70 3.0 7.0 0.00 0.00 0.00 73 1019.3
20260502024401 38 20 2.0 6.0 0.00 0.00 0.00 72 1019.4
20260502023858 39 66 4.0 7.0 0.00 0.00 0.00 72 1019.4
20260502023355 38 24 3.0 7.0 0.00 0.00 0.00 73 1019.3
20260502022854 39 30 4.0 9.0 0.00 0.00 0.00 72 1018.9
20260502022349 39 83 3.0 10.0 0.00 0.00 0.00 72 1019.2
20260502021846 39 74 5.0 11.0 0.00 0.00 0.00 73 1019.0
20260502021344 39 79 3.0 9.0 0.00 0.00 0.00 74 1018.9
20260502020841 39 84 3.0 7.0 0.00 0.00 0.00 75 1018.8
20260502020339 39 77 2.0 5.0 0.00 0.00 0.00 75 1018.9
20260502015835 39 74 2.0 6.0 0.00 0.00 0.00 74 1018.8
20260502015332 39 42 5.0 8.0 0.00 0.00 0.00 74 1018.9
20260502014830 39 49 4.0 8.0 0.00 0.00 0.00 73 1018.7
20260502014327 40 32 8.0 9.0 0.00 0.00 0.00 73 1018.6
20260502013823 39 78 5.0 10.0 0.00 0.00 0.00 74 1018.5
20260502013318 39 67 3.0 7.0 0.00 0.00 0.00 74 1018.6
20260502012815 40 82 3.0 7.0 0.00 0.00 0.00 74 1018.5
20260502012313 40 65 3.0 7.0 0.00 0.00 0.00 73 1018.3
20260502011810 40 62 3.0 9.0 0.00 0.00 0.00 74 1018.3
20260502011306 41 48 1.0 9.0 0.00 0.00 0.00 74 1018.2
20260502010803 41 87 6.0 8.0 0.00 0.00 0.00 73 1018.0
20260502010300 41 58 15.0 15.0 0.00 0.00 0.00 72 1018.0
20260502005757 41 58 6.0 10.0 0.00 0.00 0.00 73 1017.9
20260502005255 42 44 3.0 10.0 0.00 0.00 0.00 73 1017.9
20260502004751 42 53 8.0 9.0 0.00 0.00 0.00 73 1017.8
20260502004247 42 70 12.0 12.0 0.00 0.00 0.00 72 1017.8
20260502003746 42 64 4.0 11.0 0.00 0.00 0.00 72 1017.8
20260502003243 42 94 5.0 10.0 0.00 0.00 0.00 72 1017.7
20260502002738 43 74 4.0 10.0 0.00 0.00 0.00 72 1017.6
20260502002236 43 56 5.0 15.0 0.00 0.00 0.00 71 1017.5
20260502001733 44 71 4.0 13.0 0.00 0.00 0.00 71 1017.7
20260502001231 44 104 6.0 11.0 0.00 0.00 0.00 71 1017.5
20260502000729 45 81 4.0 7.0 0.00 0.00 0.00 71 1017.4
20260502000227 45 76 3.0 7.0 0.00 0.00 0.00 71 1017.5
20260501235721 45 91 4.0 6.0 0.00 0.00 0.00 71 1017.6
20260501235218 45 24 7.0 8.0 0.00 0.00 0.00 71 1017.6
20260501234714 45 2 2.0 8.0 0.00 0.00 0.00 71 1017.5
20260501234211 45 66 4.0 11.0 0.00 0.00 0.00 70 1017.6
20260501233709 45 16 3.0 7.0 0.00 0.00 0.00 72 1017.5